weather.gov     
National Weather Service

Regional Weather Roundup
NWS Homepage
This page is being discontinued on March 12, 2014.
The same data is available at this site. Please update your bookmarks.
Thank you, and we apologize for the inconvenience.
Please send an email to SR-SRH.Webmaster@noaa.gov with any concerns.


Current Version
Previous Version:    01  02  03  04  05  06  07  08  09  10  11  12  13  14  15  16  17  18  19  20  21  22  23  24  25  26  27  28  29  
[Printable]
363
ASUS42 KTBW 240410
RWRFL
FLORIDA REGIONAL WEATHER ROUNDUP
NATIONAL WEATHER SERVICE TAMPA BAY RUSKIN FL
1200 AM EDT WED SEP 24 2014

NOTE: "FAIR" INDICATES FEW OR NO CLOUDS BELOW 12,000 FEET WITH NO
SIGNIFICANT WEATHER AND/OR OBSTRUCTIONS TO VISIBILITY.


FLZ001>010-012>015-112-114-115-240500-
PANHANDLE FLORIDA

CITY           SKY/WX    TMP DP  RH WIND       PRES   REMARKS
PENSACOLA      CLEAR     70  61  73 NE5       30.10S
PENSACOLA NAS  CLEAR     72  61  68 NE7       30.09S
MILTON NAS     CLEAR     68  59  73 NE6       30.11R
CRESTVIEW      CLEAR     65  61  87 CALM      30.13R
DUKE FIELD     CLEAR     66  62  89 NE2       30.11R
VALPARAISO     CLEAR     70  62  76 NE9       30.11R
MARY ESTHER    CLEAR     69  60  72 NE6       30.09S
TRI COUNTY     FAIR      66  64  93 MISG      30.13R
PANAMA CITY    FAIR      71  63  75 NE9       30.09R
TYNDALL AFB    CLEAR     72  65  79 NE7       30.10R
APALACHICOLA   CLEAR     72  64  76 NE8       30.08R

STATION/POSITION SKY/WX   TEMP    WIND        PRES    WAVE   SWELL
                          AIR SEA DIR/SP/G            HT/PER HT/PER
                          (F)     (DEG/KT/KT) (MB)    (FT/S) (FT/S)
30.1N   87.6W              79 84   70/ 19/ 23 1018.4R   3/ 4
29.2N   88.2W              80 83   70/ 17/ 21 1018.4R   4/ 5
28.8N   86.0W              82 84   80/ 16/ 21 1017.0R   5/ 6
PANAMA CITY BEAC           74 83   60/  7/ 14 1019.0R
CAPE SAN BLAS    NOT AVBL
TOWER C                    79      70/ 21/ 23 1017.8R
28.5N   84.5W              80 84   60/ 19/ 23 1016.7R   5/ 6

$$
FLZ011-016>038-118-127-128-134-139-239-240500-
NORTH FLORIDA

CITY           SKY/WX    TMP DP  RH WIND       PRES   REMARKS
MARIANNA       CLEAR     67  66  97 NE5       30.12R
TALLAHASSEE    PTCLDY    74  63  68 NE9       30.11R
PERRY          CLEAR     70  63  78 NE5       30.10S
CROSS CITY       N/A     71  66  84 NE6       30.08R
LAKE CITY      MOCLDY    68  64  88 NE10G16   30.10S
GAINESVILLE    CLOUDY    70  68  93 N10       30.07S
MAYPORT NAS    CLOUDY    76  69  79 N23G35    30.08R
JACKSONVILLE   CLOUDY    72  66  81 N13       30.09S
JAX NAS        MOCLDY    76  68  76 N20G29    30.09S
JAX CRAIG      MOCLDY    74  68  81 NE18G28   30.08S
JAX CECIL      CLOUDY    72  66  83 N6        30.09S
FERNANDINA BEA CLOUDY    79  70  73 N15G23    30.08S
ST AUGUSTINE   CLOUDY    77  70  78 NE21G29   30.06F

STATION/POSITION SKY/WX   TEMP    WIND        PRES    WAVE   SWELL
                          AIR SEA DIR/SP/G            HT/PER HT/PER
                          (F)     (DEG/KT/KT) (MB)    (FT/S) (FT/S)
SHELL POINT                74      40/  5/  9   N/A
KEATON BEACH               71      40/  6/  8 1018.9R
CEDAR KEY                  72      40/  7/  8 1018.2R
FERNANDINA                 74 81   30/ 15/ 20 1018.5S
30.7N   81.3W                 82                N/A     8/ 7
MAYPORT                    75 81   30/ 23/ 29   N/A
31.4N   80.9W              71 81   20/ 25/ 33 1019.0R   8/ 8
ST AUGUSTINE               78      30/ 27/ 30 1018.0F

$$
FLZ040-043>046-052-053-057-058-063-144-240500-
INTERIOR CENTRAL FLORIDA

CITY           SKY/WX    TMP DP  RH WIND       PRES   REMARKS
OCALA          MOCLDY    70  66  88 NE3       30.06S
THE VILLAGES     N/A     75  72  88 CALM      29.96S
LEESBURG       MOCLDY    73  70  90 NE5       30.06S
SANFORD        CLOUDY    74  71  91 N3        30.04S
ORLANDO EXEC   MOCLDY    74  71  91 NE5       30.04S
ORLANDO INTL   MOCLDY    73  72  96 NE8       30.05S
WINTER HAVEN   MOCLDY    73  71  93 NE5       30.05S
LAKELAND       PTCLDY   N/A N/A N/A NE7       30.05R
BARTOW         FAIR      72  72 100 NE6       30.05R
OKEECHOBEE       N/A     72  72 100 MISG      30.03F

$$
FLZ041-047-054-059-064-141-147-240500-
EAST CENTRAL FLORIDA

CITY           SKY/WX    TMP DP  RH WIND       PRES   REMARKS
DAYTONA BEACH  RAIN      75  73  93 N14       30.04S
DELAND         MOCLDY    73  72  94 CALM      30.05S
JFK SPACE CTR  CLOUDY    74  72  93 N2        30.03S
CAPE CANAVERAL MOCLDY    74  73  95 N3        30.02F
PATRICK AFB    MOCLDY    77  74  93 N3        30.03F
MELBOURNE      MOCLDY    75  72  90 W3        30.03F
VERO BEACH     MOCLDY    72  70  93 CALM      30.02F
FT PIERCE      MOCLDY    74  72  93 CALM      30.02F
STUART         CLOUDY    75  70  83 CALM      30.03F

STATION/POSITION SKY/WX   TEMP    WIND        PRES    WAVE   SWELL
                          AIR SEA DIR/SP/G            HT/PER HT/PER
                          (F)     (DEG/KT/KT) (MB)    (FT/S) (FT/S)
28.5N   80.2W              80 83  100/  8/  8 1017.0S
28.9N   78.5W              77 84  140/ 16/ 21 1017.4F   3/ 7   2/ 7
TRIDENT PIER               74 83   30/  2/  3 1016.4F
28.4N   80.5W                 83                N/A     2/ 4
27.6N   80.2W                 83                N/A     2/ 8

$$
FLZ050-056-061-142-242-148-248-149-249-151-251-155-255-
160-260-240500-
WEST CENTRAL FLORIDA

CITY           SKY/WX    TMP DP  RH WIND       PRES   REMARKS
CRYSTAL RIVER  FAIR      72  68  88 NE3       30.05F
INVERNESS      FAIR      72  66  83 NE3       30.06S
BROOKSVILLE    CLEAR     72  69  90 NE7       30.05S
ZEPHYRHILLS    FAIR      64  64 100 NE3       30.05S
CLEARWATER     PTCLDY    76  72  87 NE13      30.03R
TAMPA INTL     PTCLDY    74  70  87 NE6       30.04R
TAMPA EXEC     PTCLDY    73  70  88 NE3       30.05R
PLANT CITY     PTCLDY    73 N/A N/A NE5       30.06R
MACDILL AFB    PTCLDY    74  74 100 NE13      30.03S
ST PETERSBURG  PTCLDY    77  73  87 E15       30.02R
SARASOTA       PTCLDY    74  73  97 E6        30.01R
VENICE           N/A    N/A N/A N/A MISG        N/A

STATION/POSITION SKY/WX   TEMP    WIND        PRES    WAVE   SWELL
                          AIR SEA DIR/SP/G            HT/PER HT/PER
                          (F)     (DEG/KT/KT) (MB)    (FT/S) (FT/S)
CEDAR KEY                  72      40/  7/  8 1018.2R
28.5N   84.5W              80 84   60/ 19/ 23 1016.7R   5/ 6
27.3N   84.3W                 84                N/A     3/ 5
CLEARWATER BEACH NOT AVBL
MIDDLE TAMPA BAY           77      90/ 12/ 14 1017.0R
VENICE                     75 84   50/  5/  6 1016.0S

$$
FLZ066-069-070-075>078-162-262-165-265-240500-
SOUTHWEST FLORIDA AND KEYS

CITY           SKY/WX    TMP DP  RH WIND       PRES   REMARKS
PUNTA GORDA    PTCLDY    75  73  93 E5        30.03S
FT MYERS       PTCLDY    74  73  97 E6        30.00S
SOUTHWEST INTL PTCLDY    73  70  90 E5        30.02R
NAPLES         CLEAR     75  72  90 NE5       30.00F
MARCO ISLAND   PTCLDY    75  72  88 NE6       29.99F
MARATHON       MOCLDY    81  74  79 NE14      29.97F
KEY WEST NAS   CLOUDY    77  74  90 NE13G23   29.97S FOG
KEY WEST INTL  LGT RAIN  77  74  90 N5        29.97F

STATION/POSITION SKY/WX   TEMP    WIND        PRES    WAVE   SWELL
                          AIR SEA DIR/SP/G            HT/PER HT/PER
                          (F)     (DEG/KT/KT) (MB)    (FT/S) (FT/S)
VENICE                     75 84   50/  5/  6 1016.0S
NAPLES                     76 87   50/  3/  4 1016.5F
DRY TORTUGAS               78     130/ 18/ 22 1015.0F
NW FL BAY                  82      70/  8/ 10 1015.8S
SAND KEY                   80      70/ 16/ 26 1015.2R
SOMBRERO KEY               83      90/ 11/ 12 1015.4F
LONG KEY                   81 83   70/ 13/ 14 1016.4R
MOLASSES REEF              80 84   60/  9/ 10 1015.6F

$$
FLZ067-068-071>074-168-172>174-240500-
SOUTHEAST FLORIDA

CITY           SKY/WX    TMP DP  RH WIND       PRES   REMARKS
W PALM BEACH   MOCLDY    77  73  87 NW3       30.00F
FT LAUDER-EXEC CLOUDY    77  71  82 NE3       30.01S
FT LAUDERDALE  MOCLDY    77  70  79 CALM      30.00F
POMPANO BEACH  MOCLDY    79  70  74 CALM      30.01F
PEMBROKE PINES MOCLDY    77  73  87 NE5       30.02S
OPA LOCKA      MOCLDY    78  72  81 N6        30.01S
MIAMI          MOCLDY    79  72  79 N3        30.01S
WEST KENDALL   MOCLDY    77  72  84 N5        30.00F
HOMESTEAD      MOCLDY    77  72  85 N6        30.00S

STATION/POSITION SKY/WX   TEMP    WIND        PRES    WAVE   SWELL
                          AIR SEA DIR/SP/G            HT/PER HT/PER
                          (F)     (DEG/KT/KT) (MB)    (FT/S) (FT/S)
PORT EVERGLADES            80      10/  2/  3 1016.1
VIRGINIA KEY               79 83  100/  8/ 12   N/A
LAKE WORTH                 82 85   70/  3/  4 1015.9F
FOWEY ROCKS                80 84   80/ 11/ 12 1016.6R
SETTLEMENT POINT           83      50/  6/  8 1017.1F

$$





U.S. Dept. of Commerce
NOAA National Weather Service
1325 East West Highway
Silver Spring, MD 20910
E-mail: w-nws.webmaster@noaa.gov
Page last modified: May 16, 2007
NATIONAL WEATHER SERVICE: for Safety, for Work, for Fun - FOR LIFE